Weather History for Waukegan, IL

Change the Weather History Date:

Monday, February 18, 2013

  Actual Average Record
Temperature  
Mean Temperature 39 °F -  
Max Temperature 50 °F 34 °F 52 °F (2002)
Min Temperature 28 °F 19 °F -10 °F (2006)
Degree Days  
Heating Degree Days 26 38  
Month to date heating degree days 755 731  
Since 1 July heating degree days 4215 4582  
Cooling Degree Days 0 0  
Month to date cooling degree days 0 0  
Year to date cooling degree days 0 0  
Moisture  
Dew Point 33 °F    
Average Humidity 73    
Maximum Humidity 93    
Minimum Humidity 53    
Precipitation  
Precipitation 0.36 in 0.06 in 0.36 in (2013)
Month to date precipitation 0.39 1.03  
Year to date precipitation 1.67 2.42  
Sea Level Pressure  
Sea Level Pressure 29.61 in    
Wind  
Wind Speed 14 mph (South)    
Max Wind Speed 23 mph    
Max Gust Speed 30 mph    
Visibility 8 miles    
Events Rain , Snow    
T = Trace of Precipitation, MM = Missing Value Source: NWS Daily Summary

Daily Weather History Graph

Daily Weather History Graph

Search for Another Location

Airport:

Trip Planner

Search our weather history database for the weather conditions in past years. The results will help you decide how hot, cold, wet, or windy it might be!

Date:

Astronomy

Feb. 18, 2013 Rise Set
Actual Time 6:43 AM CST 5:27 PM CST
Civil Twilight 6:14 AM CST 5:56 PM CST
Nautical Twilight 5:41 AM CST 6:29 PM CST
Astronomical Twilight 5:09 AM CST 7:01 PM CST
Moon 11:10 AM CST (2/18) 1:26 AM CST (2/18)
Length of Visible Light 11h 41m
Length of Day
10h 44m
First Quarter, 58% of the Moon is Illuminated
Feb 18
First Quarter
Feb 25
Full
Mar 4
Last Quarter
Mar 11
New
Mar 19
First Quarter

Hourly Weather History & Observations

Time (CST) Temp. Windchill Dew Point Humidity Pressure Visibility Wind Dir Wind Speed Gust Speed Precip Events Conditions
12:52 AM 28.9 °F 19.8 °F 16.0 °F 58% 30.01 in 10.0 mi SSE 10.4 mph 18.4 mph N/A   Clear
1:52 AM 28.9 °F 19.2 °F 19.0 °F 67% 29.98 in 10.0 mi SSE 11.5 mph - N/A   Clear
2:52 AM 30.0 °F 20.5 °F 17.1 °F 59% 29.94 in 10.0 mi SSE 11.5 mph - N/A   Clear
3:52 AM 30.0 °F 20.5 °F 19.9 °F 66% 29.89 in 10.0 mi SSE 11.5 mph - N/A   Clear
4:52 AM 30.0 °F 21.1 °F 18.0 °F 61% 29.86 in 10.0 mi SSE 10.4 mph - N/A   Clear
5:52 AM 30.0 °F 22.4 °F 19.0 °F 64% 29.83 in 10.0 mi SSE 8.1 mph - N/A   Clear
6:52 AM 30.9 °F 21.7 °F 19.0 °F 61% 29.80 in 10.0 mi South 11.5 mph - N/A   Clear
8:52 AM 36.0 °F 28.0 °F 24.1 °F 62% 29.75 in 10.0 mi South 11.5 mph - N/A   Clear
9:52 AM 39.9 °F 31.1 °F 28.0 °F 63% 29.74 in 10.0 mi South 17.3 mph 26.5 mph N/A   Clear
10:52 AM 44.1 °F 36.2 °F 30.9 °F 60% 29.71 in 10.0 mi South 18.4 mph 24.2 mph N/A   Clear
11:52 AM 46.9 °F - 33.1 °F 59% 29.67 in 10.0 mi SSW 15.0 mph 24.2 mph N/A   Clear
12:52 PM 50.0 °F - 36.0 °F 59% 29.63 in 10.0 mi South 20.7 mph 29.9 mph N/A   Clear
1:52 PM 48.9 °F - 37.9 °F 66% 29.61 in 10.0 mi South 17.3 mph 27.6 mph N/A   Overcast
2:52 PM 48.9 °F - 39.0 °F 69% 29.59 in 10.0 mi South 15.0 mph - N/A   Overcast
3:38 PM 48.2 °F - 39.2 °F 71% 29.54 in 10.0 mi South 11.5 mph - 0.00 in Rain Light Rain
3:52 PM 48.0 °F - 41.0 °F 77% 29.56 in 10.0 mi South 10.4 mph - 0.00 in Rain Light Rain
4:52 PM 44.1 °F 39.0 °F 39.9 °F 85% 29.53 in 9.0 mi SE 9.2 mph - 0.00 in Rain Light Rain
5:52 PM 46.0 °F 39.6 °F 44.1 °F 93% 29.50 in 6.0 mi South 15.0 mph 18.4 mph 0.02 in Rain Light Rain
6:02 PM 46.4 °F 40.1 °F 44.6 °F 93% 29.47 in 6.0 mi South 15.0 mph 23.0 mph 0.00 in Rain Light Rain
7:48 PM 46.4 °F 40.4 °F 44.6 °F 93% 29.42 in 3.0 mi South 13.8 mph 26.5 mph 0.14 in Rain Rain
7:52 PM 46.0 °F 39.0 °F 44.1 °F 93% 29.44 in 3.0 mi South 17.3 mph 26.5 mph 0.15 in Rain Rain
8:05 PM 44.6 °F 37.8 °F 44.6 °F 100% 29.40 in 4.0 mi South 15.0 mph 25.3 mph 0.03 in Rain Rain
8:52 PM 45.0 °F 37.6 °F 43.0 °F 93% 29.40 in 4.0 mi SSW 17.3 mph - 0.15 in Rain Rain
9:08 PM 41.0 °F 35.8 °F 39.2 °F 93% 29.38 in 5.0 mi West 8.1 mph 18.4 mph 0.03 in Rain Light Rain
9:41 PM 37.4 °F 31.4 °F 37.4 °F 100% 29.41 in 5.0 mi West 8.1 mph - 0.03 in Rain Light Rain
9:52 PM 37.9 °F 30.9 °F 36.0 °F 93% 29.44 in 5.0 mi West 10.4 mph 16.1 mph 0.03 in Rain Light Rain
10:52 PM 34.0 °F 26.0 °F 33.1 °F 96% 29.47 in 5.0 mi West 10.4 mph 17.3 mph 0.01 in Rain Light Freezing Rain
11:24 PM 33.8 °F 26.4 °F 32.0 °F 93% 29.46 in 6.0 mi West 9.2 mph - 0.00 in   Overcast
11:45 PM 33.8 °F 23.9 °F 30.2 °F 87% 29.47 in 2.5 mi West 15.0 mph 23.0 mph 0.00 in Snow Light Snow
11:52 PM 33.1 °F 23.4 °F 30.0 °F 89% 29.50 in 2.5 mi West 13.8 mph 23.0 mph 0.00 in Snow Light Snow